NOAA 16 DEB

基本信息
目录编号:
42369
目录名称:
NOAA 16 DEB
国际标识:
2000-055RM
轨道中心:
EARTH
物体状态:
已陨落(2025-08-12)
发射日期:
2000-09-21 UTC
轨道信息
数据来源: 国际轨道数据
星历时间: 2025-08-10T05:32:04+0800
半长轴: 6743.994km
偏心率: 0.0036427
轨道倾角: 98.732°
近地点辐角: 307.188°
升交点赤经: 355.778°
平近点角: 52.605°
近地点: 341.292km
远地点: 390.426km
周期: 91.862分钟
每日圈数: 15.675704
详细信息
发射场:
AFWTR
轨道高度:
LEO
数据来源:
AOE Integration Group
参考系:
TEME
时间系统:
UTC
历元类型:
SGP4
2D轨道图
3D轨道图
轨道高度分析图
轨道倾角分析图
轨道综合分析图
查看轨道综合分析图